Home   Weather   Alwar   Past weeks

Flag for India Past Weather in Alwar, Rajasthan, India — Yesterday and Last 2 Weeks

Now
102 °F

Scattered clouds.


Feels Like: 96 °F
Forecast: 74 / 103 °F
Wind: 7 mph from West

Location: Jaipur / Sanganer

Current Time: Apr 27, 2017 at 4:57:06 pm

Latest Report: Apr 27, 2017 at 4:00 pm


Visibility: 4 mi

Pressure: 29.74 "Hg

Humidity: 7%

Dew Point: 28 °F

Location of AlwarLocation

Past Weather in Alwar — Graph

°F

Alwar Temperature Yesterday

Maximum temperature yesterday: 99 °F (at 1:00 pm)
Minimum temperature yesterday: 72 °F (at 5:30 am)
Average temperature yesterday: 85 °F

High & Low Weather Summary for the Past Weeks

 TemperatureHumidityPressure
High109 °F (Apr 16, 4:00 pm)61% (Apr 26, 6:00 am)29.95 "Hg (Apr 26, 6:00 am)
Low72 °F (Apr 26, 5:30 am)3% (Apr 15, 5:30 pm)29.56 "Hg (Apr 20, 4:00 pm)
Average93 °F17%29.74 "Hg
* Reported Apr 12 3:30 pm — Apr 27 4:00 pm, Alwar, Weather by CustomWeather, © 2017

Note: Actual official high and low records may vary slightly from our data, if they occured in-between our weather recording intervals... More about our weather records

Advertising

Alwar Weather History for the Previous 24 Hours

Scroll right to see more
 ConditionsComfort  
Time TempWeatherWind HumidityBarometerVisibility
4:00 pm
Thu, Apr 27
102 °FScattered clouds.7 mph7%29.74 "Hg4 mi
3:30 pm102 °FScattered clouds.7 mph7%29.77 "Hg4 mi
3:00 pm102 °FPassing clouds.3 mph7%29.77 "Hg4 mi
2:30 pm100 °FClear.5 mph7%29.80 "Hg4 mi
2:00 pm100 °FClear.6 mph9%29.83 "Hg4 mi
1:30 pm100 °FClear.8 mph10%29.83 "Hg4 mi
1:00 pm100 °FClear.6 mph10%29.86 "Hg4 mi
12:30 pm99 °FClear.8 mph13%29.86 "Hg4 mi
12:00 pm97 °FClear.9 mph14%29.86 "Hg4 mi
11:30 am95 °FHaze.8 mph15%29.86 "Hg3 mi
11:00 am97 °FHaze.9 mph14%29.89 "Hg3 mi
10:30 am93 °FHaze.12 mph16%29.89 "Hg3 mi
9:30 am91 °FHaze.10 mph16%29.89 "Hg3 mi
9:00 am88 °FHaze.10 mph18%29.86 "Hg3 mi
8:30 am86 °FHaze.8 mph20%29.86 "Hg2 mi
8:00 am82 °FHaze.8 mph23%29.86 "Hg2 mi
7:00 am81 °FHaze.6 mph26%29.83 "Hg2 mi
6:30 am77 °FHaze.6 mph30%29.83 "Hg2 mi
6:00 am75 °FHaze.2 mph34%29.83 "Hg3 mi
5:30 am75 °FHaze.2 mph34%29.80 "Hg3 mi
5:09 am75 °FHaze.No wind36%29.80 "Hg3 mi
4:00 am77 °FHaze.5 mph34%29.80 "Hg3 mi
3:00 am77 °FPassing clouds.3 mph32%29.80 "Hg3 mi
2:30 am79 °FPassing clouds.3 mph30%29.83 "Hg3 mi
2:00 am81 °FPassing clouds.3 mph28%29.83 "Hg3 mi
1:30 am81 °FPassing clouds.6 mph28%29.83 "Hg3 mi
1:00 am79 °FPassing clouds.No wind30%29.83 "Hg3 mi
12:30 am81 °FPassing clouds.3 mph26%29.83 "Hg3 mi
11:30 pm
Wed, Apr 26
84 °FPassing clouds.No wind23%29.83 "Hg3 mi
11:00 pm84 °FPassing clouds.2 mph23%29.83 "Hg3 mi
10:30 pm84 °FPassing clouds.6 mph22%29.86 "Hg3 mi
10:00 pm86 °FPassing clouds.8 mph20%29.86 "Hg3 mi
9:30 pm88 °FPassing clouds.7 mph18%29.86 "Hg3 mi
9:00 pm88 °FPassing clouds.6 mph18%29.83 "Hg3 mi
8:30 pm88 °FPassing clouds.8 mph17%29.80 "Hg3 mi
8:00 pm88 °FPassing clouds.5 mph17%29.77 "Hg3 mi
7:30 pm88 °FPassing clouds.7 mph17%29.77 "Hg3 mi
7:00 pm90 °FScattered clouds.9 mph16%29.77 "Hg3 mi
6:30 pm91 °FScattered clouds.10 mph14%29.74 "Hg3 mi
6:00 pm91 °FScattered clouds.12 mph15%29.74 "Hg3 mi
5:30 pm91 °FScattered clouds.14 mph15%29.74 "Hg3 mi
5:00 pm91 °FScattered clouds.13 mph17%29.74 "Hg3 mi
4:30 pm90 °FScattered clouds.14 mph17%29.74 "Hg3 mi
4:00 pm97 °FScattered clouds.5 mph9%29.74 "Hg3 mi
Weather by CustomWeather, © 2017

See weather overviewHow to use our weather pages